This demonstration page uses our WeatherBlox Daily Observations layout. Learn more.

Left ArrowRight Arrow

39.51506, -84.39828

Hourly Observations for October 4, 2020

Temp ( °F °C ) Dew Point ( °F °C ) Humidity (%) Winds ( mph kmh ) Pressure ( in mb ) Visibility ( mi km ) Precip ( " mm )
12:15 am 00:15 Mostly Cloudy 53 11.5 48 9.1 85 85 Calm 30.19 1022 10 16.0934 0 0
12:35 am 00:35 Cloudy 52 11.1 48 9 87 87 Calm 30.18 1022 10 16.0934 0 0
12:55 am 00:55 Cloudy 51 10.7 49 9.3 91 91 Calm 30.18 1022 10 16.0934 0 0
1:15 am 01:15 Cloudy 52 10.9 49 9.4 91 91 Calm 30.18 1022 10 16.0934 0 0
1:35 am 01:35 Cloudy 52 10.9 49 9.5 91 91 Calm 30.18 1022 10 16.0934 0 0
1:55 am 01:55 Cloudy 52 10.9 49 9.5 91 91 Calm 30.17 1022 10 16.0934 0 0
2:15 am 02:15 Cloudy 52 10.9 49 9.6 92 92 Calm 30.17 1022 10 16.0934 0 0
2:35 am 02:35 Cloudy 52 10.9 48 9 88 88 Calm 30.17 1022 10 16.0934 0 0
2:55 am 02:55 Cloudy 52 11 48 9 88 88 Calm 30.17 1022 10 16.0934 0 0
3:15 am 03:15 Cloudy 51 10.6 49 9.7 94 94 Calm 30.16 1021 10 16.0934 0 0
3:35 am 03:35 Cloudy 51 10.6 49 9.7 94 94 Calm 30.16 1021 10 16.0934 0 0
3:55 am 03:55 Cloudy 51 10.6 49 9.3 92 92 Calm 30.16 1021 10 16.0934 0 0
4:15 am 04:15 Cloudy 51 10.8 49 9.6 92 92 Calm 30.16 1021 10 16.0934 0 0
4:35 am 04:35 Cloudy 51 10.5 49 9.7 95 95 Calm 30.15 1021 10 16.0934 0 0
4:55 am 04:55 Cloudy 51 10.6 50 9.8 95 95 Calm 30.15 1021 10 16.0934 0 0
5:15 am 05:15 Cloudy with Mist and Fog 51 10.5 49 9.5 94 94 Calm 30.14 1021 2.5 4.02335 0 0
5:35 am 05:35 Cloudy 51 10.5 49 9.4 93 93 Calm 30.14 1021 10 16.0934 0 0
5:55 am 05:55 Cloudy 50 10.2 49 9.4 95 95 Calm 30.15 1021 10 16.0934 0 0
6:15 am 06:15 Cloudy 50 10.2 49 9.4 95 95 Calm 30.15 1021 10 16.0934 0 0
6:35 am 06:35 Cloudy 50 10 49 9.2 95 95 Calm 30.14 1021 10 16.0934 0 0
6:55 am 06:55 Cloudy 50 9.9 49 9.2 95 95 Calm 30.15 1021 10 16.0934 0 0
7:15 am 07:15 Cloudy 50 9.9 49 9.3 96 96 Calm 30.14 1021 10 16.0934 0 0
7:35 am 07:35 Cloudy 49 9.6 48 9.1 97 97 Calm 30.14 1021 10 16.0934 0 0
7:55 am 07:55 Cloudy 49 9.5 49 9.2 98 98 Calm 30.14 1021 10 16.0934 0 0
8:15 am 08:15 Cloudy 49 9.7 49 9.3 97 97 Calm 30.13 1020 10 16.0934 0 0
8:35 am 08:35 Cloudy 51 10.3 50 9.9 97 97 Calm 30.13 1020 10 16.0934 0 0
8:55 am 08:55 Cloudy 51 10.8 50 10.2 96 96 Calm 30.13 1020 10 16.0934 0 0
9:15 am 09:15 Cloudy 52 11.2 50 10.2 94 94 Calm 30.12 1020 10 16.0934 0 0
9:35 am 09:35 Cloudy 53 11.9 51 10.4 91 91 Calm 30.11 1020 10 16.0934 0 0
9:55 am 09:55 Cloudy 56 13.1 50 10.2 83 83 Calm 30.11 1020 10 16.0934 0 0
10:15 am 10:15 Cloudy 58 14.4 48 8.7 69 69 Calm 30.1 1019 10 16.0934 0 0
10:35 am 10:35 Cloudy 60 15.7 48 8.8 64 64 S 6 9 30.09 1019 10 16.0934 0 0
10:55 am 10:55 Cloudy 62 16.9 46 7.8 55 55 SSW 8 13 30.09 1019 10 16.0934 0 0
11:15 am 11:15 Cloudy 62 16.7 46 7.7 56 56 SSW 8 13 30.09 1019 10 16.0934 0 0
11:35 am 11:35 Cloudy 63 17.3 47 8.2 55 55 SW 6 9 30.08 1019 10 16.0934 0 0
11:55 am 11:55 Cloudy 64 17.5 47 8.4 55 55 SSW 7 11 30.08 1019 10 16.0934 0 0
12:15 pm 12:15 Mostly Cloudy 66 18.7 46 7.9 50 50 SSW 8 13 30.07 1018 10 16.0934 0 0
12:35 pm 12:35 Partly Cloudy 66 18.8 46 7.8 49 49 SSW 10 17 30.07 1018 10 16.0934 0 0
12:55 pm 12:55 Cloudy 65 18.5 46 7.7 50 50 SSW 9 15 30.06 1018 10 16.0934 0 0
1:15 pm 13:15 Cloudy 67 19.5 45 7.4 46 46 SW 9 15 30.05 1017 10 16.0934 0 0
1:35 pm 13:35 Cloudy 65 18.5 46 7.5 49 49 WSW 14 22 30.05 1018 10 16.0934 0 0
1:55 pm 13:55 Cloudy with Rain 55 13 50 10.2 83 83 NNW 15 24 30.09 1019 10 16.0934 0.01 0.254
2:15 pm 14:15 Cloudy with Rain 53 11.9 51 10.6 92 92 NNW 10 17 30.09 1019 5 8.0467 0.05 1.27
2:35 pm 14:35 Cloudy with Light Rain 53 11.7 51 10.8 94 94 NNW 9 15 30.09 1019 10 16.0934 0.05 1.27
2:55 pm 14:55 Cloudy with Heavy Rain 53 11.5 52 10.9 96 96 NNE 5 7 30.1 1019 4 6.43736 0.15 3.81
3:15 pm 15:15 Cloudy with Light Rain 53 11.8 53 11.5 98 98 Calm 30.09 1019 7 11.26538 0.02 0.508
3:35 pm 15:35 Cloudy 54 12.2 53 11.7 97 97 Calm 30.1 1019 10 16.0934 0.02 0.508
3:55 pm 15:55 Cloudy 54 12.3 52 11.1 92 92 NNW 5 7 30.1 1019 10 16.0934 0.02 0.508
4:15 pm 16:15 Cloudy 54 12.2 51 10.7 91 91 NNW 6 9 30.11 1020 10 16.0934 0 0
4:35 pm 16:35 Cloudy 53 11.9 51 10.4 91 91 NNW 6 9 30.12 1020 10 16.0934 0 0
4:55 pm 16:55 Cloudy 53 11.9 50 10.2 89 89 Calm 30.12 1020 10 16.0934 0 0
5:15 pm 17:15 Cloudy 54 12.1 50 10.2 88 88 NNW 6 9 30.13 1020 10 16.0934 0 0
5:35 pm 17:35 Cloudy 53 11.7 49 9.7 88 88 NNW 9 15 30.13 1020 10 16.0934 0 0
5:55 pm 17:55 Cloudy 53 11.5 48 9 85 85 NNW 12 19 30.15 1021 10 16.0934 0 0
6:15 pm 18:15 Cloudy 53 11.4 48 8.9 85 85 NNW 9 15 30.16 1021 10 16.0934 0 0
6:35 pm 18:35 Cloudy 53 11.4 48 8.8 84 84 NNW 5 7 30.16 1021 10 16.0934 0 0
6:55 pm 18:55 Cloudy 52 11.3 48 8.7 84 84 NW 3 6 30.18 1022 10 16.0934 0 0
7:15 pm 19:15 Cloudy 52 11.2 48 8.7 85 85 NNW 3 6 30.18 1022 10 16.0934 0 0
7:35 pm 19:35 Cloudy 52 11.1 48 8.7 85 85 NW 3 6 30.19 1022 10 16.0934 0 0
7:55 pm 19:55 Cloudy 52 10.9 48 8.7 86 86 Calm 30.19 1022 10 16.0934 0 0
8:15 pm 20:15 Cloudy 51 10.5 47 8.4 87 87 NW 5 7 30.2 1023 10 16.0934 0 0
8:35 pm 20:35 Clear 49 9.5 46 7.9 90 90 WNW 3 6 30.2 1023 10 16.0934 0 0
8:55 pm 20:55 Mostly Cloudy 49 9.3 46 7.9 91 91 WNW 3 6 30.2 1023 10 16.0934 0 0
9:15 pm 21:15 Cloudy 49 9.6 47 8.1 90 90 W 3 6 30.21 1023 10 16.0934 0 0
9:35 pm 21:35 Mostly Cloudy 49 9.3 46 7.8 90 90 WNW 6 9 30.22 1023 10 16.0934 0 0
9:55 pm 21:55 Partly Cloudy 48 8.8 46 7.5 92 92 WNW 5 7 30.23 1024 10 16.0934 0 0
10:15 pm 22:15 Clear 47 8.2 45 7.1 93 93 NW 3 6 30.24 1024 10 16.0934 0 0
10:35 pm 22:35 Clear 46 7.9 44 6.9 93 93 WNW 5 7 30.24 1024 10 16.0934 0 0
10:55 pm 22:55 Clear 46 7.5 44 6.6 94 94 Calm 30.26 1025 10 16.0934 0 0
11:15 pm 23:15 Clear 44 6.9 44 6.4 97 97 Calm 30.26 1025 10 16.0934 0 0
11:35 pm 23:35 Clear 46 7.6 44 6.6 93 93 NNW 3 6 30.26 1025 10 16.0934 0 0
11:55 pm 23:55 Clear 46 7.7 43 6.2 90 90 NNW 3 6 30.25 1025 10 16.0934 0 0

Powered by AerisWeather